User: anonymous   Login
Location: Fort Wayne
(41.1310°N, 85.1290°W)
Time: 14:46:21
(UTC-04:00)
Language:

BREEZE-M DEB (TANK) - Orbit

View from above orbital plane
View from above orbital plane
View from above satellite
View from above satellite

Ground track
Ground track

The orbit data is extracted from the following two-line orbital elements,

1 27821U 03024B   17289.49594235 +.00005500 +00000-0 +49101-3 0  9995
2 27821 049.5406 165.1295 4938859 122.4867 294.9618 05.76739765287444
Epoch (UTC): 16 October 2017 11:54:09
Eccentricity: 0.4938859
inclination: 49.5406°
perigee height: 269 km
apogee height: 13243 km
right ascension of ascending node: 165.1295°
argument of perigee: 122.4867°
revolutions per day: 5.76739765
mean anomaly at epoch: 294.9618°
orbit number at epoch: 28744

The dashed part of the orbit path shows where the satellite is in the earth's shadow,  

DLR